sat.trackr.live / text

‹ back to catalog

O3B FM9

NORAD 40351 · 2014-083D

PAYLOAD ACTIVE UNKNOWN

§ Identity

Operator
Country
O3B
Launch date
2014-12-18
Launch site
FRGUI
Launch vehicle
Mass (kg)
RCS (m²)
16.38

Purposes: comms

External: N2YO · Heavens-Above · Gunter

§ Orbital elements

Epoch: 2026-09-19T18:34:35.105088Z

Period
287.93 min
Inclination
0.0539°
Eccentricity
0.0002608
Mean motion
5.00116172 rev/d
Perigee alt
8,062.1 km
Apogee alt
8,069.6 km
Semi-major
14,444.0 km
B*
0.0000e+0
RAAN
346.8078°
Arg perigee
189.6720°
Mean anomaly
183.5243°
Rev number
21,479

§ Raw data

O3B FM91 40351U 14083D   26262.77401742 -.00000027  00000+0  00000+0 0  99972 40351   0.0539 346.8078 0002608 189.6720 183.5243  5.00116172214799

JSON: /api/v1/satellites/40351 · /tle

For live sub-satellite position, see the globe view (requires WebGL).

§ Visibility from observer

Set your observer location to see the next 7 days of passes ≥ 10°. The values pass through the URL so the page stays shareable.

No JS? Fill the form by hand. The geolocation button needs JavaScript.